Orbital Elements at Epoch 2459000.5 (2020-May-31.0) TDB
Reference: JPL 17 (heliocentric ecliptic J2000)
Element | Value | Uncertainty (1-sigma) | Units |
e | .13642153097111 | 7.1669e-08 | |
a | 3.154078916347799 | 3.3746e-08 | au |
q | 2.723794641775933 | 2.3604e-07 | au |
i | 17.41876339229358 | 9.5775e-06 | deg |
node | 228.9470451908911 | 2.2789e-05 | deg |
peri | 208.227501753915 | 4.2259e-05 | deg |
M | 9.313072430110187 | 3.3307e-05 | deg |
tp | 2458947.570506302770 (2020-Apr-08.07050630) | 0.00018916 | TDB |
period | 2046.007681567796 5.60 | 3.2836e-05 8.99e-08 | d yr |
n | .1759524185775014 | 2.8238e-09 | deg/d |
Q | 3.584363190919666 | 3.8349e-08 | au |
|
| | Orbit Determination Parameters
Additional Information
|